GFSNGP_prec_precacc24_246.txt.gz
Total_Precipitation_Accumulation
0.02 0.01 0.01 0.00 0.00 0.00 0.00 0.00 0.01 0.00 0.00 0.00 0.00 0.00 0.00 0.00 0.00 0.00 0.00 0.00 0.00 0.00 0.00 0.00 0.00 0.00 0.00 0.00 0.00 0.00 0.00 0.00 0.00 0.00 0.00 0.00 0.00 0.00 0.00 0.00 0.00 0.00 0.00 0.00
0.10 0.01 0.02 0.03 0.00 0.00 0.00 0.00 0.00 0.00 0.00 0.00 0.00 0.01 0.00 0.00 0.00 0.00 0.00 0.00 0.00 0.00 0.00 0.00 0.00 0.00 0.00 0.00 0.00 0.00 0.00 0.00 0.00 0.00 0.00 0.00 0.00 0.00 0.00 0.00 0.00 0.00 0.00 0.00
0.39 0.12 0.31 0.35 0.02 0.00 0.00 0.00 0.00 0.00 0.00 0.00 0.03 0.02 0.00 0.00 0.00 0.00 0.00 0.00 0.00 0.00 0.00 0.00 0.00 0.00 0.00 0.00 0.00 0.00 0.00 0.00 0.00 0.00 0.00 0.00 0.00 0.00 0.00 0.00 0.01 0.01 0.03 0.05
0.82 0.49 1.10 0.44 0.01 0.00 0.00 0.00 0.00 0.00 0.00 0.01 0.02 0.00 0.00 0.00 0.00 0.00 0.00 0.00 0.00 0.00 0.00 0.00 0.00 0.00 0.00 0.00 0.00 0.00 0.00 0.00 0.00 0.00 0.00 0.00 0.00 0.00 0.01 0.01 0.01 0.02 0.02 0.03
1.16 0.82 0.38 0.03 0.00 0.00 0.00 0.00 0.00 0.00 0.00 0.00 0.00 0.00 0.00 0.00 0.00 0.00 0.00 0.00 0.00 0.00 0.00 0.00 0.00 0.00 0.00 0.00 0.00 0.00 0.00 0.00 0.00 0.00 0.00 0.00 0.00 0.00 0.00 0.00 0.01 0.03 0.04 0.03
1.60 1.00 0.42 0.01 0.00 0.00 0.00 0.05 0.01 0.00 0.00 0.00 0.00 0.00 0.00 0.00 0.00 0.00 0.00 0.00 0.00 0.00 0.00 0.00 0.00 0.00 0.00 0.00 0.00 0.00 0.00 0.00 0.00 0.00 0.00 0.00 0.00 0.01 0.01 0.02 0.05 0.03 0.01 0.00
1.52 0.98 0.26 0.01 0.00 0.01 0.06 0.14 0.00 0.00 0.00 0.00 0.00 0.00 0.00 0.00 0.00 0.00 0.00 0.00 0.00 0.00 0.00 0.00 0.00 0.00 0.00 0.00 0.00 0.00 0.00 0.00 0.00 0.00 0.00 0.01 0.01 0.01 0.02 0.01 0.00 0.00 0.00 0.00
1.20 0.92 0.25 0.00 0.01 0.02 0.04 0.01 0.00 0.00 0.01 0.00 0.00 0.00 0.00 0.00 0.00 0.00 0.00 0.00 0.00 0.00 0.00 0.00 0.00 0.00 0.00 0.00 0.00 0.00 0.00 0.00 0.00 0.00 0.01 0.02 0.02 0.01 0.00 0.00 0.01 0.00 0.00 0.00
0.38 0.26 0.02 0.00 0.00 0.00 0.01 0.02 0.02 0.03 0.01 0.01 0.01 0.00 0.00 0.00 0.00 0.00 0.00 0.00 0.00 0.00 0.00 0.01 0.01 0.00 0.00 0.00 0.00 0.01 0.00 0.01 0.01 0.01 0.02 0.02 0.01 0.01 0.01 0.01 0.00 0.00 0.00 0.00
0.23 0.07 0.00 0.00 0.00 0.00 0.00 0.04 0.09 0.11 0.09 0.05 0.01 0.00 0.00 0.00 0.00 0.00 0.00 0.00 0.00 0.01 0.01 0.01 0.00 0.00 0.00 0.00 0.01 0.01 0.02 0.03 0.03 0.03 0.03 0.01 0.01 0.01 0.01 0.00 0.00 0.00 0.00 0.00
0.20 0.08 0.02 0.02 0.01 0.00 0.00 0.01 0.01 0.04 0.04 0.07 0.02 0.00 0.00 0.00 0.00 0.00 0.00 0.00 0.00 0.02 0.01 0.01 0.01 0.01 0.01 0.00 0.01 0.04 0.08 0.07 0.06 0.05 0.05 0.04 0.02 0.01 0.00 0.00 0.01 0.01 0.00 0.01
0.06 0.03 0.04 0.07 0.06 0.06 0.04 0.01 0.00 0.01 0.01 0.00 0.00 0.00 0.00 0.00 0.00 0.00 0.00 0.00 0.01 0.03 0.06 0.06 0.03 0.02 0.02 0.03 0.06 0.11 0.10 0.09 0.10 0.09 0.06 0.03 0.02 0.01 0.01 0.00 0.01 0.01 0.00 0.02
0.07 0.04 0.04 0.06 0.07 0.05 0.03 0.03 0.02 0.01 0.01 0.01 0.01 0.00 0.00 0.00 0.00 0.00 0.00 0.00 0.00 0.00 0.01 0.02 0.02 0.04 0.07 0.09 0.11 0.12 0.13 0.13 0.10 0.05 0.02 0.01 0.01 0.00 0.00 0.00 0.00 0.00 0.00 0.00
0.08 0.06 0.10 0.09 0.09 0.09 0.11 0.05 0.03 0.03 0.04 0.03 0.02 0.02 0.02 0.01 0.00 0.00 0.00 0.00 0.00 0.00 0.01 0.01 0.04 0.09 0.12 0.13 0.13 0.12 0.09 0.07 0.03 0.01 0.01 0.00 0.00 0.00 0.00 0.01 0.00 0.00 0.00 0.00
0.18 0.16 0.13 0.11 0.11 0.11 0.13 0.16 0.08 0.02 0.00 0.01 0.02 0.02 0.02 0.02 0.00 0.00 0.00 0.00 0.00 0.00 0.00 0.01 0.02 0.05 0.07 0.07 0.07 0.05 0.02 0.01 0.00 0.00 0.00 0.00 0.00 0.00 0.00 0.01 0.00 0.00 0.00 0.00
0.03 0.09 0.09 0.07 0.10 0.08 0.07 0.09 0.10 0.03 0.02 0.02 0.03 0.03 0.02 0.01 0.01 0.00 0.00 0.00 0.00 0.00 0.00 0.01 0.00 0.01 0.01 0.01 0.01 0.00 0.00 0.00 0.00 0.00 0.00 0.00 0.00 0.00 0.01 0.01 0.01 0.01 0.00 0.00
0.07 0.05 0.03 0.03 0.04 0.06 0.06 0.07 0.08 0.04 0.04 0.06 0.05 0.02 0.01 0.00 0.00 0.00 0.00 0.00 0.00 0.00 0.00 0.00 0.00 0.00 0.00 0.00 0.00 0.00 0.00 0.00 0.00 0.00 0.00 0.00 0.00 0.01 0.01 0.01 0.01 0.01 0.01 0.00
0.04 0.05 0.12 0.10 0.06 0.05 0.05 0.03 0.01 0.00 0.00 0.02 0.01 0.01 0.00 0.00 0.00 0.00 0.00 0.00 0.00 0.00 0.00 0.00 0.00 0.00 0.00 0.00 0.00 0.00 0.00 0.00 0.00 0.00 0.00 0.00 0.00 0.01 0.01 0.01 0.02 0.02 0.01 0.01
0.02 0.04 0.05 0.08 0.09 0.08 0.07 0.02 0.00 0.00 0.00 0.00 0.00 0.00 0.00 0.00 0.00 0.00 0.00 0.00 0.00 0.00 0.00 0.00 0.00 0.00 0.00 0.00 0.00 0.00 0.00 0.00 0.00 0.00 0.00 0.00 0.00 0.00 0.01 0.01 0.02 0.03 0.02 0.01
0.00 0.02 0.05 0.15 0.14 0.12 0.08 0.03 0.00 0.00 0.00 0.00 0.00 0.00 0.00 0.00 0.00 0.00 0.00 0.00 0.00 0.00 0.00 0.00 0.00 0.00 0.00 0.00 0.00 0.00 0.00 0.00 0.00 0.00 0.00 0.01 0.01 0.02 0.02 0.02 0.03 0.04 0.04 0.03
0.00 0.00 0.00 0.04 0.08 0.05 0.03 0.02 0.01 0.00 0.00 0.00 0.00 0.00 0.00 0.00 0.00 0.00 0.00 0.00 0.00 0.00 0.00 0.00 0.00 0.00 0.00 0.00 0.00 0.00 0.01 0.01 0.01 0.01 0.01 0.02 0.02 0.03 0.03 0.02 0.03 0.04 0.05 0.05
0.01 0.00 0.00 0.01 0.04 0.04 0.02 0.01 0.00 0.00 0.00 0.00 0.01 0.00 0.00 0.00 0.00 0.00 0.00 0.00 0.00 0.00 0.00 0.00 0.00 0.00 0.00 0.00 0.00 0.00 0.00 0.01 0.02 0.02 0.02 0.02 0.03 0.03 0.03 0.03 0.04 0.06 0.07 0.07
0.09 0.05 0.02 0.01 0.02 0.01 0.01 0.01 0.01 0.01 0.01 0.00 0.00 0.00 0.00 0.00 0.00 0.02 0.02 0.01 0.03 0.04 0.03 0.03 0.03 0.03 0.04 0.04 0.04 0.04 0.03 0.03 0.02 0.02 0.02 0.02 0.02 0.03 0.03 0.04 0.05 0.07 0.08 0.09
0.21 0.11 0.06 0.07 0.05 0.02 0.02 0.02 0.01 0.00 0.00 0.00 0.00 0.00 0.00 0.01 0.01 0.03 0.05 0.06 0.07 0.06 0.04 0.03 0.03 0.03 0.02 0.02 0.02 0.02 0.01 0.01 0.01 0.01 0.01 0.01 0.01 0.02 0.03 0.04 0.05 0.06 0.07 0.09
0.18 0.15 0.12 0.08 0.03 0.01 0.00 0.00 0.00 0.00 0.00 0.00 0.00 0.00 0.00 0.01 0.02 0.02 0.01 0.01 0.01 0.01 0.00 0.00 0.00 0.00 0.00 0.00 0.00 0.00 0.00 0.00 0.00 0.00 0.00 0.00 0.01 0.01 0.02 0.03 0.03 0.05 0.07 0.08
0.03 0.02 0.03 0.01 0.00 0.00 0.00 0.00 0.00 0.00 0.00 0.00 0.00 0.00 0.00 0.00 0.00 0.00 0.00 0.00 0.00 0.00 0.00 0.00 0.00 0.00 0.00 0.00 0.00 0.00 0.00 0.00 0.00 0.00 0.01 0.01 0.01 0.02 0.02 0.03 0.04 0.05 0.07 0.09
0.00 0.00 0.00 0.00 0.00 0.00 0.00 0.00 0.00 0.00 0.00 0.00 0.00 0.00 0.00 0.00 0.00 0.00 0.00 0.00 0.00 0.00 0.00 0.01 0.01 0.01 0.00 0.00 0.00 0.00 0.00 0.00 0.00 0.01 0.01 0.01 0.01 0.02 0.03 0.04 0.05 0.06 0.08 0.10

GFSNGP_prec_precacc24_252.txt.gz
Total_Precipitation_Accumulation
0.04 0.03 0.02 0.02 0.03 0.02 0.01 0.02 0.08 0.08 0.01 0.01 0.00 0.00 0.00 0.00 0.00 0.00 0.00 0.00 0.00 0.00 0.00 0.00 0.00 0.00 0.00 0.00 0.00 0.02 0.04 0.02 0.01 0.01 0.05 0.04 0.03 0.03 0.04 0.04 0.04 0.08 0.06 0.03
0.10 0.01 0.00 0.01 0.00 0.01 0.00 0.01 0.02 0.04 0.04 0.01 0.00 0.00 0.00 0.00 0.00 0.00 0.00 0.00 0.00 0.00 0.00 0.00 0.00 0.00 0.00 0.00 0.00 0.00 0.01 0.02 0.02 0.04 0.03 0.02 0.02 0.01 0.02 0.02 0.02 0.04 0.07 0.05
0.31 0.08 0.12 0.17 0.01 0.00 0.00 0.00 0.01 0.02 0.03 0.00 0.00 0.00 0.00 0.00 0.00 0.00 0.00 0.00 0.00 0.00 0.00 0.00 0.00 0.00 0.00 0.00 0.00 0.00 0.02 0.02 0.03 0.03 0.03 0.01 0.01 0.02 0.03 0.04 0.05 0.06 0.06 0.05
0.55 0.25 0.74 0.29 0.01 0.00 0.00 0.00 0.00 0.00 0.00 0.00 0.00 0.00 0.00 0.00 0.00 0.00 0.00 0.00 0.00 0.00 0.00 0.00 0.00 0.00 0.00 0.00 0.00 0.00 0.00 0.01 0.01 0.02 0.02 0.01 0.01 0.02 0.05 0.08 0.11 0.14 0.14 0.09
0.97 0.69 0.33 0.03 0.00 0.00 0.00 0.00 0.00 0.00 0.00 0.00 0.00 0.00 0.00 0.00 0.00 0.00 0.00 0.00 0.00 0.00 0.00 0.00 0.00 0.00 0.00 0.00 0.00 0.00 0.00 0.00 0.00 0.00 0.00 0.00 0.01 0.01 0.01 0.03 0.06 0.08 0.10 0.10
1.30 0.94 0.41 0.02 0.00 0.00 0.00 0.07 0.01 0.00 0.00 0.01 0.01 0.00 0.00 0.00 0.00 0.00 0.00 0.00 0.00 0.00 0.00 0.00 0.00 0.00 0.00 0.00 0.00 0.00 0.00 0.00 0.00 0.00 0.00 0.00 0.00 0.01 0.01 0.03 0.06 0.08 0.11 0.15
1.36 0.92 0.27 0.01 0.00 0.01 0.08 0.14 0.00 0.00 0.01 0.01 0.01 0.00 0.00 0.00 0.00 0.00 0.00 0.00 0.00 0.00 0.00 0.00 0.00 0.00 0.00 0.00 0.00 0.00 0.00 0.00 0.00 0.00 0.01 0.01 0.01 0.02 0.03 0.03 0.04 0.08 0.15 0.21
1.08 0.88 0.28 0.01 0.01 0.03 0.04 0.01 0.00 0.02 0.03 0.03 0.01 0.00 0.00 0.00 0.00 0.00 0.00 0.00 0.00 0.00 0.00 0.00 0.00 0.00 0.00 0.00 0.00 0.00 0.00 0.01 0.01 0.00 0.01 0.03 0.04 0.03 0.03 0.05 0.10 0.17 0.25 0.27
0.36 0.25 0.02 0.00 0.00 0.00 0.01 0.02 0.03 0.04 0.01 0.07 0.10 0.06 0.04 0.02 0.01 0.00 0.00 0.00 0.00 0.00 0.00 0.01 0.01 0.00 0.00 0.00 0.00 0.01 0.01 0.01 0.03 0.03 0.04 0.05 0.07 0.09 0.12 0.18 0.24 0.30 0.30 0.25
0.24 0.08 0.00 0.00 0.00 0.00 0.00 0.04 0.09 0.13 0.14 0.08 0.05 0.08 0.13 0.09 0.09 0.04 0.02 0.01 0.01 0.01 0.01 0.01 0.00 0.00 0.00 0.00 0.01 0.01 0.03 0.05 0.06 0.08 0.14 0.20 0.24 0.26 0.30 0.35 0.36 0.32 0.24 0.16
0.20 0.09 0.02 0.02 0.01 0.00 0.00 0.01 0.01 0.05 0.09 0.14 0.16 0.13 0.06 0.03 0.03 0.04 0.08 0.09 0.08 0.07 0.06 0.04 0.01 0.01 0.01 0.01 0.02 0.06 0.13 0.16 0.19 0.25 0.33 0.40 0.42 0.41 0.38 0.32 0.25 0.19 0.13 0.09
0.06 0.03 0.04 0.07 0.06 0.06 0.04 0.01 0.00 0.01 0.01 0.01 0.01 0.02 0.06 0.08 0.05 0.02 0.02 0.04 0.09 0.14 0.17 0.21 0.14 0.12 0.12 0.14 0.17 0.25 0.32 0.37 0.41 0.49 0.55 0.59 0.58 0.48 0.35 0.25 0.16 0.11 0.07 0.04
0.07 0.04 0.04 0.06 0.07 0.05 0.03 0.03 0.02 0.01 0.01 0.01 0.01 0.00 0.00 0.00 0.00 0.00 0.01 0.01 0.02 0.03 0.05 0.05 0.07 0.14 0.23 0.31 0.41 0.52 0.65 0.79 0.81 0.77 0.70 0.60 0.41 0.28 0.21 0.18 0.13 0.09 0.04 0.02
0.08 0.06 0.10 0.09 0.09 0.09 0.11 0.05 0.03 0.03 0.04 0.03 0.02 0.02 0.02 0.01 0.00 0.00 0.01 0.02 0.02 0.03 0.05 0.08 0.14 0.26 0.37 0.48 0.57 0.62 0.64 0.65 0.64 0.59 0.51 0.37 0.26 0.19 0.14 0.10 0.06 0.03 0.02 0.01
0.18 0.16 0.13 0.11 0.11 0.11 0.13 0.16 0.12 0.05 0.02 0.03 0.02 0.02 0.03 0.04 0.04 0.05 0.04 0.03 0.04 0.06 0.08 0.14 0.26 0.41 0.45 0.47 0.49 0.49 0.47 0.45 0.44 0.38 0.30 0.24 0.19 0.14 0.10 0.05 0.02 0.01 0.01 0.00
0.03 0.09 0.09 0.07 0.10 0.08 0.07 0.09 0.21 0.17 0.06 0.03 0.03 0.05 0.07 0.11 0.15 0.16 0.12 0.09 0.10 0.13 0.18 0.24 0.29 0.35 0.36 0.36 0.35 0.36 0.35 0.31 0.28 0.23 0.19 0.16 0.10 0.06 0.03 0.01 0.01 0.00 0.00 0.00
0.08 0.05 0.03 0.03 0.04 0.06 0.06 0.07 0.09 0.11 0.13 0.13 0.12 0.11 0.16 0.24 0.24 0.22 0.21 0.22 0.24 0.23 0.18 0.17 0.22 0.26 0.25 0.25 0.27 0.28 0.25 0.17 0.16 0.12 0.08 0.05 0.02 0.01 0.00 0.00 0.00 0.00 0.00 0.00
0.04 0.05 0.12 0.11 0.06 0.05 0.05 0.05 0.06 0.07 0.09 0.13 0.18 0.24 0.29 0.22 0.18 0.21 0.22 0.18 0.16 0.19 0.21 0.21 0.18 0.18 0.19 0.20 0.20 0.16 0.10 0.06 0.04 0.03 0.02 0.01 0.00 0.00 0.00 0.00 0.00 0.00 0.00 0.00
0.02 0.06 0.10 0.12 0.12 0.11 0.12 0.13 0.11 0.14 0.22 0.25 0.34 0.45 0.37 0.21 0.16 0.16 0.15 0.15 0.17 0.16 0.19 0.17 0.16 0.16 0.16 0.16 0.08 0.03 0.02 0.01 0.01 0.00 0.00 0.00 0.00 0.00 0.00 0.00 0.00 0.00 0.01 0.01
0.00 0.04 0.09 0.20 0.21 0.28 0.39 0.31 0.28 0.37 0.47 0.52 0.41 0.28 0.23 0.23 0.17 0.15 0.13 0.15 0.14 0.10 0.12 0.12 0.12 0.10 0.06 0.02 0.00 0.00 0.00 0.00 0.00 0.00 0.00 0.00 0.01 0.01 0.01 0.01 0.01 0.01 0.02 0.02
0.02 0.06 0.12 0.20 0.35 0.46 0.48 0.42 0.38 0.36 0.33 0.26 0.21 0.25 0.24 0.22 0.16 0.12 0.08 0.09 0.12 0.05 0.03 0.03 0.01 0.00 0.00 0.00 0.00 0.00 0.01 0.01 0.01 0.01 0.01 0.01 0.01 0.02 0.02 0.01 0.01 0.01 0.02 0.02
0.11 0.14 0.20 0.25 0.29 0.38 0.40 0.38 0.31 0.30 0.29 0.28 0.24 0.17 0.09 0.08 0.06 0.04 0.02 0.01 0.01 0.00 0.00 0.00 0.00 0.00 0.00 0.00 0.00 0.00 0.00 0.01 0.02 0.02 0.02 0.02 0.02 0.02 0.02 0.01 0.02 0.03 0.03 0.03
0.32 0.30 0.26 0.24 0.23 0.25 0.24 0.23 0.27 0.25 0.25 0.16 0.07 0.03 0.01 0.00 0.00 0.00 0.00 0.00 0.00 0.00 0.00 0.00 0.00 0.01 0.01 0.02 0.03 0.03 0.03 0.03 0.02 0.02 0.02 0.02 0.02 0.02 0.02 0.02 0.02 0.03 0.03 0.03
0.46 0.34 0.30 0.25 0.15 0.10 0.22 0.19 0.09 0.04 0.02 0.01 0.00 0.00 0.00 0.00 0.00 0.00 0.00 0.00 0.00 0.00 0.00 0.00 0.00 0.00 0.00 0.01 0.01 0.01 0.01 0.01 0.01 0.01 0.01 0.01 0.01 0.01 0.02 0.02 0.02 0.02 0.02 0.02
0.35 0.40 0.37 0.18 0.08 0.05 0.03 0.01 0.00 0.00 0.00 0.00 0.00 0.00 0.00 0.00 0.00 0.00 0.00 0.00 0.00 0.00 0.00 0.00 0.00 0.00 0.00 0.00 0.00 0.00 0.00 0.00 0.00 0.00 0.00 0.00 0.00 0.01 0.01 0.01 0.01 0.01 0.01 0.02
0.16 0.18 0.13 0.02 0.00 0.00 0.00 0.00 0.00 0.00 0.00 0.00 0.01 0.00 0.00 0.00 0.00 0.00 0.00 0.00 0.00 0.00 0.00 0.00 0.00 0.00 0.00 0.00 0.00 0.00 0.00 0.00 0.00 0.00 0.00 0.01 0.01 0.01 0.02 0.02 0.02 0.02 0.02 0.03
0.05 0.02 0.00 0.01 0.01 0.00 0.00 0.00 0.00 0.01 0.00 0.01 0.02 0.01 0.00 0.00 0.00 0.00 0.00 0.00 0.00 0.00 0.01 0.01 0.01 0.01 0.00 0.00 0.00 0.00 0.00 0.00 0.00 0.00 0.01 0.01 0.01 0.02 0.02 0.02 0.02 0.02 0.02 0.02

GFSNGP_prec_precacc24_255.txt.gz
Total_Precipitation_Accumulation
0.04 0.03 0.02 0.02 0.03 0.02 0.01 0.02 0.09 0.08 0.01 0.01 0.00 0.00 0.00 0.00 0.00 0.00 0.00 0.00 0.00 0.00 0.00 0.00 0.00 0.00 0.00 0.00 0.00 0.02 0.04 0.02 0.02 0.05 0.09 0.09 0.10 0.11 0.12 0.10 0.09 0.13 0.19 0.28
0.10 0.01 0.00 0.01 0.00 0.01 0.00 0.01 0.02 0.04 0.04 0.01 0.00 0.00 0.00 0.00 0.00 0.00 0.00 0.00 0.00 0.00 0.00 0.00 0.00 0.00 0.00 0.00 0.00 0.01 0.03 0.04 0.07 0.07 0.06 0.05 0.07 0.09 0.06 0.04 0.04 0.06 0.11 0.13
0.30 0.08 0.11 0.16 0.01 0.00 0.00 0.00 0.01 0.02 0.03 0.00 0.00 0.00 0.00 0.00 0.00 0.00 0.00 0.00 0.00 0.00 0.00 0.00 0.00 0.00 0.00 0.00 0.00 0.01 0.04 0.05 0.07 0.07 0.07 0.05 0.06 0.06 0.07 0.06 0.06 0.07 0.08 0.08
0.41 0.18 0.63 0.26 0.01 0.00 0.00 0.00 0.00 0.00 0.00 0.00 0.00 0.00 0.00 0.00 0.00 0.00 0.00 0.00 0.00 0.00 0.00 0.00 0.00 0.00 0.00 0.00 0.00 0.02 0.03 0.06 0.05 0.07 0.11 0.05 0.04 0.07 0.07 0.09 0.12 0.15 0.15 0.16
0.75 0.53 0.28 0.03 0.00 0.00 0.00 0.00 0.00 0.00 0.00 0.00 0.00 0.00 0.00 0.00 0.00 0.00 0.00 0.00 0.00 0.00 0.00 0.00 0.00 0.00 0.00 0.00 0.00 0.01 0.02 0.04 0.07 0.06 0.05 0.05 0.05 0.04 0.03 0.03 0.06 0.09 0.13 0.16
1.08 0.82 0.36 0.02 0.00 0.00 0.00 0.07 0.01 0.00 0.00 0.01 0.01 0.00 0.00 0.00 0.00 0.00 0.00 0.00 0.00 0.00 0.00 0.00 0.00 0.00 0.00 0.00 0.00 0.00 0.00 0.01 0.04 0.06 0.06 0.06 0.05 0.04 0.03 0.04 0.06 0.09 0.14 0.18
1.17 0.82 0.26 0.01 0.00 0.01 0.08 0.14 0.00 0.00 0.01 0.01 0.01 0.01 0.00 0.00 0.00 0.00 0.00 0.00 0.00 0.00 0.00 0.00 0.00 0.00 0.00 0.00 0.00 0.00 0.00 0.00 0.05 0.07 0.08 0.06 0.06 0.05 0.05 0.04 0.04 0.09 0.17 0.24
0.95 0.79 0.28 0.01 0.01 0.03 0.04 0.01 0.00 0.02 0.03 0.03 0.01 0.00 0.00 0.00 0.00 0.00 0.00 0.00 0.00 0.00 0.00 0.00 0.00 0.00 0.00 0.00 0.00 0.00 0.00 0.01 0.02 0.03 0.05 0.07 0.07 0.05 0.04 0.05 0.10 0.18 0.27 0.34
0.33 0.23 0.02 0.00 0.00 0.00 0.01 0.02 0.03 0.04 0.01 0.07 0.10 0.06 0.04 0.02 0.01 0.00 0.00 0.00 0.00 0.00 0.00 0.01 0.01 0.00 0.00 0.00 0.00 0.01 0.01 0.02 0.04 0.04 0.06 0.08 0.09 0.10 0.12 0.18 0.25 0.32 0.39 0.42
0.24 0.08 0.00 0.00 0.00 0.00 0.00 0.04 0.09 0.13 0.14 0.08 0.05 0.08 0.13 0.09 0.09 0.04 0.02 0.01 0.01 0.01 0.01 0.01 0.00 0.00 0.00 0.00 0.01 0.01 0.03 0.05 0.06 0.09 0.15 0.21 0.24 0.26 0.30 0.37 0.42 0.46 0.48 0.46
0.20 0.09 0.02 0.02 0.01 0.00 0.00 0.01 0.01 0.05 0.09 0.14 0.16 0.13 0.06 0.03 0.03 0.04 0.08 0.09 0.08 0.08 0.08 0.07 0.03 0.01 0.01 0.01 0.02 0.06 0.13 0.16 0.19 0.26 0.34 0.41 0.43 0.42 0.42 0.42 0.42 0.45 0.46 0.36
0.07 0.03 0.04 0.07 0.06 0.06 0.04 0.01 0.00 0.01 0.01 0.01 0.01 0.02 0.06 0.08 0.05 0.02 0.02 0.04 0.09 0.15 0.21 0.27 0.26 0.21 0.16 0.15 0.18 0.25 0.32 0.37 0.42 0.50 0.57 0.62 0.64 0.64 0.59 0.54 0.50 0.40 0.26 0.16
0.08 0.04 0.04 0.06 0.07 0.05 0.03 0.03 0.02 0.01 0.01 0.01 0.01 0.00 0.00 0.00 0.00 0.00 0.01 0.01 0.02 0.03 0.05 0.10 0.16 0.27 0.41 0.46 0.51 0.57 0.66 0.80 0.88 0.93 0.94 0.93 0.86 0.79 0.74 0.67 0.49 0.27 0.17 0.12
0.08 0.06 0.10 0.09 0.09 0.09 0.11 0.05 0.03 0.03 0.04 0.03 0.02 0.02 0.02 0.01 0.00 0.00 0.01 0.02 0.02 0.03 0.06 0.09 0.18 0.32 0.42 0.52 0.60 0.66 0.68 0.73 0.70 0.69 0.70 0.72 0.74 0.73 0.60 0.40 0.25 0.13 0.09 0.06
0.18 0.16 0.13 0.11 0.11 0.11 0.13 0.16 0.12 0.05 0.02 0.03 0.02 0.02 0.03 0.04 0.04 0.05 0.04 0.03 0.04 0.06 0.08 0.15 0.29 0.47 0.50 0.50 0.52 0.53 0.54 0.56 0.56 0.55 0.52 0.50 0.44 0.36 0.26 0.15 0.09 0.06 0.05 0.03
0.03 0.09 0.09 0.07 0.10 0.08 0.07 0.09 0.21 0.17 0.06 0.03 0.03 0.05 0.07 0.11 0.15 0.16 0.12 0.09 0.10 0.15 0.21 0.30 0.37 0.41 0.40 0.38 0.39 0.41 0.43 0.45 0.45 0.41 0.36 0.32 0.26 0.20 0.16 0.11 0.08 0.04 0.01 0.01
0.08 0.05 0.03 0.03 0.04 0.06 0.06 0.07 0.09 0.11 0.13 0.13 0.12 0.11 0.16 0.24 0.25 0.24 0.25 0.29 0.34 0.32 0.26 0.24 0.29 0.31 0.30 0.31 0.37 0.41 0.41 0.36 0.35 0.30 0.23 0.18 0.13 0.10 0.06 0.04 0.03 0.01 0.01 0.01
0.04 0.05 0.12 0.11 0.06 0.05 0.05 0.05 0.06 0.07 0.09 0.13 0.18 0.24 0.32 0.30 0.33 0.38 0.37 0.29 0.25 0.28 0.31 0.31 0.28 0.29 0.31 0.34 0.36 0.32 0.27 0.24 0.22 0.17 0.14 0.11 0.08 0.06 0.04 0.03 0.01 0.00 0.00 0.01
0.02 0.06 0.10 0.12 0.12 0.12 0.13 0.16 0.19 0.27 0.34 0.32 0.44 0.62 0.65 0.55 0.44 0.34 0.27 0.26 0.29 0.28 0.38 0.34 0.33 0.31 0.30 0.30 0.20 0.13 0.11 0.10 0.10 0.08 0.06 0.04 0.03 0.02 0.01 0.00 0.00 0.00 0.01 0.00
0.00 0.04 0.10 0.22 0.26 0.35 0.51 0.51 0.47 0.52 0.63 0.69 0.65 0.54 0.50 0.51 0.38 0.33 0.28 0.30 0.31 0.26 0.31 0.31 0.28 0.23 0.16 0.11 0.08 0.04 0.05 0.04 0.03 0.02 0.02 0.01 0.01 0.01 0.01 0.01 0.01 0.01 0.02 0.02
0.04 0.08 0.14 0.26 0.43 0.54 0.61 0.58 0.50 0.49 0.49 0.42 0.35 0.41 0.43 0.44 0.34 0.27 0.17 0.20 0.32 0.21 0.16 0.11 0.05 0.02 0.01 0.00 0.00 0.00 0.01 0.01 0.01 0.01 0.01 0.01 0.01 0.02 0.02 0.01 0.01 0.01 0.02 0.02
0.14 0.18 0.26 0.31 0.35 0.48 0.53 0.49 0.42 0.43 0.44 0.45 0.43 0.33 0.24 0.29 0.21 0.14 0.12 0.11 0.13 0.04 0.02 0.01 0.01 0.00 0.00 0.00 0.00 0.00 0.00 0.01 0.01 0.02 0.02 0.02 0.02 0.02 0.02 0.01 0.02 0.03 0.03 0.03
0.36 0.36 0.34 0.34 0.33 0.35 0.32 0.32 0.36 0.34 0.36 0.27 0.18 0.11 0.06 0.05 0.04 0.02 0.02 0.02 0.01 0.00 0.00 0.00 0.00 0.00 0.00 0.00 0.00 0.00 0.01 0.01 0.01 0.01 0.02 0.02 0.02 0.02 0.02 0.02 0.02 0.03 0.03 0.03
0.51 0.42 0.41 0.37 0.19 0.11 0.25 0.22 0.11 0.05 0.03 0.03 0.02 0.02 0.01 0.01 0.01 0.00 0.00 0.00 0.00 0.00 0.00 0.00 0.00 0.00 0.00 0.00 0.00 0.00 0.00 0.00 0.01 0.01 0.01 0.01 0.01 0.01 0.02 0.02 0.02 0.02 0.02 0.02
0.40 0.47 0.45 0.21 0.08 0.05 0.03 0.01 0.00 0.00 0.00 0.00 0.00 0.00 0.00 0.00 0.01 0.00 0.00 0.00 0.00 0.00 0.00 0.00 0.00 0.00 0.00 0.00 0.00 0.00 0.00 0.00 0.00 0.00 0.00 0.00 0.00 0.01 0.01 0.01 0.01 0.01 0.02 0.02
0.19 0.18 0.13 0.02 0.00 0.00 0.00 0.00 0.01 0.01 0.00 0.01 0.01 0.01 0.01 0.00 0.00 0.00 0.00 0.00 0.00 0.00 0.00 0.00 0.00 0.00 0.00 0.00 0.00 0.00 0.00 0.00 0.00 0.00 0.00 0.01 0.01 0.01 0.02 0.02 0.02 0.02 0.02 0.03
0.05 0.02 0.00 0.01 0.01 0.00 0.00 0.00 0.01 0.01 0.01 0.01 0.02 0.02 0.01 0.00 0.00 0.00 0.00 0.00 0.00 0.00 0.01 0.01 0.01 0.01 0.00 0.00 0.00 0.00 0.00 0.00 0.00 0.00 0.01 0.01 0.01 0.02 0.02 0.02 0.02 0.02 0.02 0.02

GFSNGP_prec_precacc24_261.txt.gz
Total_Precipitation_Accumulation
0.04 0.03 0.02 0.02 0.03 0.02 0.01 0.02 0.09 0.08 0.01 0.01 0.00 0.00 0.00 0.00 0.00 0.00 0.00 0.00 0.00 0.00 0.00 0.00 0.00 0.00 0.00 0.00 0.00 0.02 0.05 0.05 0.06 0.09 0.14 0.16 0.20 0.20 0.20 0.16 0.17 0.22 0.30 0.34
0.10 0.01 0.00 0.01 0.00 0.01 0.00 0.01 0.02 0.04 0.04 0.01 0.00 0.00 0.00 0.00 0.00 0.00 0.00 0.00 0.00 0.00 0.00 0.00 0.00 0.00 0.00 0.00 0.00 0.02 0.04 0.07 0.11 0.14 0.13 0.13 0.18 0.20 0.16 0.14 0.15 0.21 0.22 0.27
0.28 0.08 0.09 0.10 0.01 0.00 0.00 0.00 0.01 0.02 0.03 0.00 0.00 0.00 0.00 0.00 0.00 0.00 0.00 0.00 0.00 0.00 0.00 0.00 0.00 0.00 0.00 0.00 0.00 0.01 0.05 0.08 0.12 0.14 0.18 0.19 0.22 0.22 0.22 0.23 0.23 0.27 0.26 0.21
0.36 0.11 0.27 0.16 0.01 0.00 0.00 0.00 0.00 0.00 0.00 0.00 0.00 0.00 0.00 0.00 0.00 0.00 0.00 0.00 0.00 0.00 0.00 0.00 0.00 0.00 0.00 0.00 0.00 0.02 0.04 0.08 0.12 0.17 0.24 0.22 0.23 0.23 0.23 0.27 0.27 0.28 0.26 0.24
0.50 0.32 0.17 0.02 0.00 0.00 0.00 0.00 0.00 0.00 0.00 0.00 0.00 0.00 0.00 0.00 0.00 0.00 0.00 0.00 0.00 0.00 0.00 0.00 0.00 0.00 0.00 0.00 0.00 0.02 0.03 0.04 0.10 0.16 0.19 0.19 0.19 0.18 0.15 0.13 0.13 0.13 0.16 0.19
0.70 0.62 0.27 0.02 0.00 0.00 0.00 0.06 0.01 0.00 0.00 0.01 0.01 0.00 0.00 0.00 0.00 0.00 0.00 0.00 0.00 0.00 0.00 0.00 0.00 0.00 0.00 0.00 0.00 0.00 0.00 0.02 0.07 0.12 0.16 0.19 0.18 0.16 0.13 0.12 0.13 0.14 0.18 0.21
0.62 0.58 0.22 0.01 0.00 0.01 0.08 0.14 0.00 0.00 0.01 0.01 0.01 0.01 0.00 0.00 0.00 0.00 0.00 0.00 0.00 0.00 0.00 0.00 0.00 0.00 0.00 0.00 0.00 0.00 0.00 0.00 0.06 0.13 0.16 0.15 0.16 0.19 0.23 0.27 0.23 0.21 0.27 0.34
0.50 0.51 0.22 0.01 0.01 0.03 0.04 0.01 0.00 0.02 0.03 0.03 0.01 0.00 0.00 0.00 0.00 0.00 0.00 0.00 0.00 0.00 0.00 0.00 0.00 0.00 0.00 0.00 0.00 0.00 0.00 0.01 0.03 0.03 0.06 0.10 0.15 0.18 0.20 0.25 0.34 0.47 0.52 0.53
0.23 0.15 0.01 0.00 0.00 0.00 0.01 0.02 0.03 0.04 0.01 0.07 0.10 0.06 0.04 0.02 0.01 0.00 0.00 0.00 0.00 0.00 0.00 0.00 0.00 0.00 0.00 0.00 0.00 0.01 0.01 0.02 0.04 0.04 0.06 0.08 0.12 0.15 0.18 0.28 0.39 0.49 0.58 0.61
0.21 0.07 0.00 0.00 0.00 0.00 0.00 0.04 0.09 0.13 0.14 0.08 0.05 0.08 0.13 0.09 0.09 0.04 0.02 0.01 0.01 0.01 0.00 0.00 0.00 0.00 0.00 0.00 0.01 0.01 0.03 0.05 0.06 0.09 0.15 0.21 0.25 0.30 0.35 0.42 0.47 0.52 0.56 0.56
0.19 0.09 0.02 0.02 0.01 0.00 0.00 0.01 0.01 0.05 0.09 0.14 0.16 0.13 0.06 0.03 0.03 0.04 0.08 0.09 0.08 0.08 0.08 0.07 0.03 0.01 0.01 0.01 0.02 0.06 0.14 0.17 0.21 0.26 0.36 0.42 0.47 0.49 0.48 0.47 0.50 0.50 0.52 0.49
0.08 0.02 0.03 0.07 0.06 0.06 0.04 0.01 0.00 0.01 0.01 0.01 0.01 0.02 0.06 0.08 0.05 0.02 0.02 0.04 0.09 0.15 0.21 0.27 0.26 0.21 0.16 0.16 0.19 0.26 0.34 0.40 0.49 0.58 0.63 0.68 0.71 0.79 0.84 0.75 0.77 0.66 0.61 0.57
0.07 0.04 0.04 0.06 0.07 0.05 0.03 0.03 0.02 0.01 0.01 0.01 0.01 0.00 0.00 0.00 0.00 0.00 0.01 0.01 0.02 0.03 0.05 0.10 0.16 0.27 0.41 0.47 0.57 0.68 0.80 0.94 1.05 1.13 1.13 1.12 1.02 0.93 0.92 0.96 0.85 0.71 0.64 0.58
0.08 0.06 0.10 0.09 0.09 0.09 0.11 0.05 0.03 0.03 0.04 0.03 0.02 0.02 0.02 0.01 0.00 0.00 0.01 0.02 0.02 0.03 0.06 0.09 0.18 0.32 0.42 0.54 0.66 0.76 0.84 0.96 0.94 0.93 1.02 1.10 1.16 1.07 0.92 0.79 0.72 0.66 0.53 0.44
0.18 0.16 0.13 0.11 0.11 0.11 0.13 0.16 0.12 0.05 0.02 0.03 0.02 0.02 0.03 0.05 0.04 0.05 0.04 0.03 0.04 0.06 0.08 0.16 0.30 0.49 0.52 0.53 0.59 0.61 0.64 0.71 0.79 0.82 0.84 0.90 0.81 0.72 0.60 0.45 0.37 0.37 0.41 0.39
0.03 0.09 0.09 0.07 0.10 0.08 0.07 0.09 0.21 0.17 0.06 0.03 0.03 0.05 0.07 0.11 0.16 0.16 0.12 0.09 0.10 0.15 0.23 0.35 0.45 0.49 0.45 0.42 0.45 0.51 0.58 0.67 0.72 0.75 0.77 0.74 0.62 0.45 0.40 0.36 0.32 0.26 0.22 0.22
0.08 0.05 0.03 0.03 0.05 0.06 0.06 0.07 0.09 0.11 0.14 0.14 0.13 0.12 0.18 0.29 0.30 0.28 0.29 0.36 0.44 0.47 0.42 0.38 0.39 0.38 0.35 0.38 0.47 0.55 0.56 0.57 0.62 0.62 0.62 0.59 0.51 0.40 0.34 0.30 0.26 0.22 0.19 0.16
0.04 0.05 0.13 0.12 0.07 0.07 0.07 0.06 0.08 0.09 0.13 0.18 0.23 0.32 0.47 0.52 0.60 0.66 0.68 0.59 0.50 0.49 0.52 0.49 0.43 0.42 0.43 0.48 0.52 0.52 0.47 0.47 0.49 0.50 0.49 0.44 0.43 0.38 0.32 0.27 0.23 0.20 0.20 0.17
0.02 0.06 0.10 0.13 0.14 0.15 0.18 0.22 0.27 0.35 0.45 0.48 0.61 0.90 0.97 0.94 0.80 0.68 0.56 0.52 0.53 0.48 0.70 0.62 0.57 0.51 0.49 0.52 0.42 0.33 0.32 0.32 0.33 0.34 0.31 0.30 0.29 0.27 0.25 0.22 0.20 0.17 0.14 0.12
0.00 0.04 0.11 0.24 0.29 0.42 0.60 0.62 0.59 0.61 0.80 0.90 0.84 0.71 0.67 0.78 0.67 0.63 0.47 0.58 0.70 0.67 0.63 0.55 0.43 0.42 0.40 0.36 0.28 0.22 0.21 0.19 0.19 0.19 0.17 0.16 0.16 0.17 0.16 0.14 0.12 0.12 0.12 0.10
0.04 0.08 0.16 0.31 0.51 0.61 0.71 0.71 0.60 0.65 0.71 0.59 0.48 0.60 0.68 0.75 0.59 0.46 0.31 0.45 0.76 0.51 0.35 0.24 0.12 0.08 0.06 0.05 0.05 0.06 0.06 0.06 0.06 0.08 0.07 0.07 0.06 0.06 0.06 0.06 0.06 0.05 0.05 0.05
0.16 0.20 0.30 0.39 0.40 0.56 0.68 0.63 0.57 0.59 0.60 0.64 0.64 0.51 0.37 0.52 0.41 0.28 0.27 0.36 0.39 0.14 0.05 0.03 0.02 0.01 0.00 0.00 0.00 0.00 0.00 0.00 0.00 0.00 0.01 0.01 0.01 0.02 0.02 0.02 0.03 0.03 0.04 0.04
0.37 0.39 0.38 0.39 0.40 0.46 0.38 0.36 0.43 0.40 0.42 0.35 0.29 0.21 0.15 0.17 0.17 0.09 0.08 0.07 0.02 0.01 0.01 0.01 0.00 0.00 0.00 0.00 0.00 0.00 0.00 0.00 0.00 0.01 0.01 0.01 0.02 0.02 0.02 0.03 0.03 0.04 0.04 0.04
0.52 0.43 0.44 0.40 0.21 0.11 0.26 0.23 0.11 0.06 0.04 0.04 0.03 0.03 0.02 0.02 0.03 0.02 0.02 0.00 0.00 0.00 0.00 0.00 0.00 0.00 0.00 0.00 0.00 0.00 0.00 0.00 0.00 0.00 0.00 0.01 0.01 0.01 0.02 0.02 0.02 0.03 0.03 0.03
0.41 0.48 0.45 0.21 0.08 0.05 0.03 0.01 0.01 0.01 0.00 0.01 0.01 0.00 0.00 0.00 0.01 0.00 0.00 0.00 0.00 0.00 0.00 0.00 0.00 0.00 0.00 0.00 0.00 0.00 0.00 0.00 0.00 0.00 0.00 0.00 0.00 0.01 0.01 0.01 0.01 0.01 0.02 0.02
0.19 0.19 0.13 0.02 0.01 0.00 0.00 0.00 0.01 0.01 0.00 0.01 0.02 0.01 0.01 0.00 0.00 0.00 0.00 0.00 0.00 0.00 0.00 0.00 0.00 0.00 0.00 0.00 0.00 0.00 0.00 0.00 0.00 0.00 0.00 0.01 0.01 0.02 0.02 0.02 0.02 0.02 0.02 0.03
0.06 0.02 0.01 0.01 0.01 0.00 0.00 0.01 0.01 0.01 0.01 0.01 0.03 0.02 0.01 0.00 0.00 0.00 0.00 0.00 0.00 0.00 0.01 0.01 0.01 0.01 0.00 0.00 0.00 0.00 0.00 0.00 0.00 0.00 0.01 0.01 0.01 0.02 0.02 0.02 0.02 0.02 0.02 0.02